Regional Weather Roundup
Issued by NWS

Home | Current Version | Previous Version | Text Only | Print | Product List | Glossary On
Versions: 1 2 3 4 5 6 7 8 9 10 11 12 13 14 15 16 17 18 19 20 21 22 23 24 25 26 27 28 29 30 31 32 33 34 35 36 37 38 39 40 41 42 43 44 45 46 47 48 49 50
000
ASUS43 KDMX 241706
RWRIA

WEATHER ROUNDUP FOR IOWA
NATIONAL WEATHER SERVICE DES MOINES IA
1200 PM CDT MON JUL 24 2017

NOTE: "FAIR" INDICATES FEW OR NO CLOUDS BELOW 12,000 FEET WITH NO
SIGNIFICANT WEATHER AND/OR OBSTRUCTIONS TO VISIBILITY.

* - THESE STATIONS ARE NOT NWS STATIONS...THUS NOT UNDER NWS
QUALITY CONTROL.  THEY ALSO DO NOT REPORT WEATHER SUCH
AS PRECIPITATION OR FOG.

IAZ001>003-012>014-020>022-031>034-043>046-241800-
   NORTHWEST IOWA

CITY           SKY/WX    TMP DP  RH WIND       PRES   REMARKS
CARROLL *        N/A     75  64  69 VRB6      30.04S
CHEROKEE *       N/A     77  62  59 S8        30.03F
DENISON *        N/A     75  61  60 E7        30.05S
ORANGE CITY *    N/A     75  61  60 SE6       30.03S
SHELDON *        N/A     75  63  64 SE8       30.02S
SIOUX CITY       N/A     78  63  59 SE8       30.01F HX  80
SPENCER          N/A     76  60  57 VRB5      30.04F
STORM LAKE *     N/A     73  61  64 S8G14     30.05S
$$

IAZ055>058-069>071-079>083-090>094-241800-
   SOUTHWEST IOWA

CITY           SKY/WX    TMP DP  RH WIND       PRES   REMARKS
ATLANTIC *       N/A     77  61  57 VRB7      30.03F
AUDUBON *        N/A     77  64  65 SE7       30.05F
CLARINDA *       N/A     79  66  65 CALM      30.05F HX  81
COUNCIL BLFS *   N/A     77  66  69 VRB6      30.03F
CRESTON *        N/A     79  61  53 E7        30.05F HX  80
HARLAN  *        N/A     77  63  61 CALM      30.07S
LAMONI           N/A     80  62  54 VRB3      30.03F HX  81
RED OAK *        N/A     79  64  61 VRB5      30.03F HX  81
SHENANDOAH *     N/A     79  64  61 SE5       30.03S HX  81
$$

IAZ047>049-059>061-072>074-084-241800-
   CENTRAL IOWA

CITY           SKY/WX    TMP DP  RH WIND       PRES   REMARKS
AMES             N/A     75  63  66 E7        30.04F
ANKENY *         N/A     75  63  64 VRB6G13   30.05F
BOONE *          N/A     75  63  64 E6        30.04F
CHARITON *       N/A     79  59  50 E7        30.03F HX  80
DES MOINES       N/A     80  59  48 NW6       30.03S HX  81
GRINNELL*        N/A     73  63  70 E7        30.06F
KNOXVILLE *      N/A     77  59  53 N7        30.03S
MARSHALLTOWN   PTSUNNY   72  63  73 SE8       30.05S
NEWTON *       PTSUNNY   73  63  68 E7        30.05S
PELLA *          N/A     78  61  55 NE3       30.05S
$$

IAZ004>006-015-016-023>025-035-036-241800-
   NORTH CENTRAL IOWA

CITY           SKY/WX    TMP DP  RH WIND       PRES   REMARKS
ALGONA *         N/A     73  61  64 E6G12     30.05F
CLARION *      PTSUNNY   73  64  73 E8        30.06S
ESTHERVILLE      N/A     71  62  73 VRB6      30.04F
FORT DODGE *     N/A     73  61  64 E7        30.06S
MASON CITY     CLOUDY    71  60  68 E6        30.09R
FOREST CITY *  CLOUDY    72  59  64 CALM      30.08R
WEBSTER CITY *   N/A     75  61  60 E7        30.03F
IOWA FALLS *   CLOUDY    73  62  69 NE6       30.08R
$$

IAZ007>011-017>019-026>030-037>042-050>054-066-241800-
   NORTHEAST IOWA

CITY           SKY/WX    TMP DP  RH WIND       PRES   REMARKS
CEDAR RAPIDS   CLOUDY    72  65  78 E7        30.05S
CHARLES CITY * CLOUDY    70  63  78 E6        30.08R
DECORAH *      CLOUDY    64  57  77 VRB5      30.08S
DUBUQUE        CLOUDY    70  60  70 NE6       30.08R
MONTICELLO *   CLOUDY    72  63  73 VRB6      30.05F
OELWEIN *        N/A    N/A N/A N/A MISG        N/A
WATERLOO       PTSUNNY   70  62  76 NE6       30.05S
$$

IAZ064-065-067-068-078-241800-
   EAST CENTRAL IOWA

CITY           SKY/WX    TMP DP  RH WIND       PRES   REMARKS
DAVENPORT      CLOUDY    70  64  81 NE9       30.07S
IOWA CITY      CLOUDY    75  66  73 NE9       30.06S
MT. PLEASANT * PTSUNNY   77  66  68 NE5       30.03S
MUSCATINE *    PTSUNNY   75  66  73 NE10      30.04S
QUAD CITIES    CLOUDY    72  64  76 NE9       30.04S
$$

IAZ062-063-075>077-085>089-095>099-241800-
   SOUTHEAST IOWA

CITY           SKY/WX    TMP DP  RH WIND       PRES   REMARKS
BURLINGTON       N/A     76  67  73 NE8       30.02F
FAIRFIELD *      N/A     77  63  61 VRB5G12   30.03S
FORT MADISON *   N/A     75  70  83 NE6       30.03S
KEOKUK *         N/A     77  64  65 VRB7      30.01S
OSKALOOSA *      N/A     78  62  57 E3        30.03F
CENTERVILLE *    N/A     79  61  53 CALM      30.04F HX  80
OTTUMWA          N/A     79  61  53 N3        30.03F HX  80
WASHINGTON *   PTSUNNY   75  66  73 CALM      30.05F
$$

ABBREVIATIONS USED IN REMARKS
   TC - TEMPERATURES IN CELSIUS
  WCI - WIND CHILL INDEX
   HX - HEAT INDEX
  VSB - VISIBILITY
$$




USA.gov is the U.S. government's official web portal to all federal, state and local government web resources and services.